Weather History for Hobart, OK

Change the Weather History Date:

Thursday, May 9, 2013

  Actual Average Record
Temperature  
Mean Temperature 67 °F -  
Max Temperature 79 °F 78 °F 98 °F (2011)
Min Temperature 57 °F 53 °F 44 °F (2012)
Cooling Degree Days 2    
Growing Degree Days 17 (Base 50)    
Moisture  
Dew Point 60 °F    
Average Humidity 80    
Maximum Humidity 100    
Minimum Humidity 60    
Precipitation  
Precipitation 0.01 in - - ()
Sea Level Pressure  
Sea Level Pressure 29.87 in    
Wind  
Wind Speed 8 mph (East)    
Max Wind Speed 20 mph    
Max Gust Speed 24 mph    
Visibility 9 miles    
Events Rain , Thunderstorm    
Averages and records for this station are not official NWS values.
T = Trace of Precipitation, MM = Missing Value Source: NWS Daily Summary

Daily Weather History Graph

Daily Weather History Graph

Search for Another Location

Airport:

Trip Planner

Search our weather history database for the weather conditions in past years. The results will help you decide how hot, cold, wet, or windy it might be!

Date:

Astronomy

May. 09, 2013 Rise Set
Actual Time 6:37 AM CDT 8:28 PM CDT
Civil Twilight 6:09 AM CDT 8:56 PM CDT
Nautical Twilight 5:36 AM CDT 9:29 PM CDT
Astronomical Twilight 5:00 AM CDT 10:05 PM CDT
Moon 6:21 AM CDT (5/9) 8:25 PM CDT (5/9)
Length of Visible Light 14h 46m
Length of Day
13h 51m
Waning Crescent, 0% of the Moon is Illuminated
May 9
Waning Crescent
May 9
New
May 17
First Quarter
May 24
Full
May 31
Last Quarter

Hourly Weather History & Observations

Time (CDT) Temp. Dew Point Humidity Pressure Visibility Wind Dir Wind Speed Gust Speed Precip Events Conditions
12:53 AM 66.0 °F 62.1 °F 87% 29.79 in 9.0 mi South 10.4 mph - N/A   Clear
1:53 AM 66.0 °F 61.0 °F 84% 29.78 in 9.0 mi South 15.0 mph - N/A   Clear
2:53 AM 63.0 °F 61.0 °F 93% 29.81 in 8.0 mi SSW 5.8 mph - N/A   Partly Cloudy
3:53 AM 62.1 °F 60.1 °F 93% 29.81 in 7.0 mi Calm Calm - N/A   Clear
4:53 AM 59.0 °F 57.9 °F 96% 29.80 in 5.0 mi SE 6.9 mph - N/A   Clear
5:53 AM 57.9 °F 57.0 °F 97% 29.82 in 4.0 mi ENE 4.6 mph - N/A   Clear
6:26 AM 57.2 °F 57.2 °F 100% 29.86 in 3.0 mi ESE 5.8 mph - N/A   Mostly Cloudy
6:53 AM 60.1 °F 59.0 °F 96% 29.83 in 4.0 mi East 3.5 mph - N/A   Overcast
7:53 AM 64.0 °F 63.0 °F 96% 29.85 in 5.0 mi East 4.6 mph - N/A   Overcast
8:53 AM 66.9 °F 62.1 °F 84% 29.86 in 9.0 mi East 5.8 mph - N/A   Overcast
9:53 AM 70.0 °F 62.1 °F 76% 29.86 in 10.0 mi SSE 5.8 mph - N/A   Overcast
10:48 AM 71.6 °F 62.6 °F 73% 29.91 in 10.0 mi Calm Calm - N/A   Overcast
10:53 AM 71.1 °F 61.0 °F 70% 29.87 in 10.0 mi Calm Calm - N/A   Overcast
11:53 AM 71.6 °F 62.6 °F 73% 29.90 in 10.0 mi East 5.8 mph - N/A   Overcast
12:53 PM 72.0 °F 61.0 °F 68% 29.90 in 10.0 mi East 4.6 mph - N/A   Overcast
1:53 PM 72.0 °F 62.1 °F 71% 29.89 in 10.0 mi SSE 8.1 mph - N/A   Overcast
2:32 PM 75.2 °F 62.6 °F 65% 29.92 in 10.0 mi Variable 4.6 mph - N/A   Scattered Clouds
2:53 PM 77.0 °F 62.1 °F 60% 29.88 in 10.0 mi ESE 9.2 mph - N/A   Mostly Cloudy
3:53 PM 73.9 °F 66.0 °F 76% 29.86 in 8.0 mi NNE 11.5 mph - 0.01 in Rain Light Rain
4:53 PM 75.9 °F 62.1 °F 62% 29.86 in 10.0 mi NE 11.5 mph - 0.00 in   Scattered Clouds
5:53 PM 75.0 °F 63.0 °F 66% 29.83 in 10.0 mi NE 13.8 mph - 0.00 in Rain Light Rain
6:23 PM 73.4 °F 62.6 °F 69% 29.87 in 10.0 mi NNE 19.6 mph 24.2 mph N/A Thunderstorm Mostly Cloudy
6:53 PM 69.1 °F 57.9 °F 68% 29.86 in 10.0 mi ENE 11.5 mph - N/A Thunderstorm Thunderstorm
7:05 PM 69.8 °F 59.0 °F 68% 29.88 in 10.0 mi NE 12.7 mph - N/A Thunderstorm Thunderstorm
7:48 PM 62.6 °F 53.6 °F 72% 29.92 in 10.0 mi ESE 11.5 mph - N/A   Scattered Clouds
7:53 PM 62.1 °F 55.0 °F 78% 29.89 in 10.0 mi ESE 8.1 mph - N/A   Scattered Clouds
8:53 PM 60.1 °F 53.1 °F 78% 29.93 in 10.0 mi SSE 9.2 mph - N/A   Clear
9:53 PM 60.1 °F 55.0 °F 83% 29.95 in 10.0 mi NNE 4.6 mph - N/A   Clear
10:53 PM 59.0 °F 55.9 °F 90% 29.95 in 10.0 mi ENE 5.8 mph - N/A   Clear
11:53 PM 57.9 °F 55.9 °F 93% 29.95 in 9.0 mi NE 9.2 mph - N/A   Clear